STPSAT-6

Last updated on Thu Aug 13 2026 00:03:02 GMT+0000 (Coordinated Universal Time)

1 49817U 21118A 26224.23100174 -.00000062 00000+0 00000+0 0 9993 2 49817 0.4606 84.8124 0000907 221.6751 345.4743 1.00270998 17132
UTC large
Height (km)
Speed (km/s)
/
Latitude / Longitude
Inclination (degrees)
Orbital Period (minutes)
Azimuth
Elevation
Range (km)
Doppler Factor

Next 0 passes for location: London (51.5072 / 0.1276)

No passes found over London.
STPSAT-6